Location: Córrego Montividiu
(13.2496°S, 48.8603°W)
Time: 12:06:12
(UTC+00:00)

Cosmos 1805 - Pass Details

Date: 11 March 2026
Orbit: 416 x 420 km, 82.5° (Epoch: 22 April)

Event Time Altitude Azimuth Distance (km) Brightness Sun altitude
Rises 22:03:43 0° 189° (S) 2,402 6.8 -8.5°
Reaches altitude 10° 22:05:46 10° 192° (SSW) 1,532 5.8 -9.0°
Maximum altitude 22:09:05 65° 274° (W) 477 3.3 -9.8°
Drops below altitude 10° 22:12:21 10° 356° (N) 1,519 5.6 -10.6°
Sets 22:14:23 0° 359° (N) 2,379 6.5 -11.1°
